TimeEST,TemperatureF,Dew PointF,Humidity,Sea Level PressureIn,VisibilityMPH,Wind Direction,Wind SpeedMPH,Gust SpeedMPH,PrecipitationIn,Events,Conditions,WindDirDegrees,DateUTC
12:15 AM,32.5,32.5,100,30.20,7.0,Calm,Calm,-,N/A,,Clear,0,2012-11-09 05:15:00
12:35 AM,32.5,32.5,100,30.20,5.0,Calm,Calm,-,N/A,,Clear,0,2012-11-09 05:35:00
12:55 AM,31.5,31.5,100,30.20,5.0,Calm,Calm,-,N/A,,Clear,0,2012-11-09 05:55:00
1:15 AM,30.2,30.2,100,30.20,2.5,Calm,Calm,-,N/A,,Clear,0,2012-11-09 06:15:00
1:35 AM,30.2,30.2,100,30.20,4.0,Calm,Calm,-,N/A,,Clear,0,2012-11-09 06:35:00
1:55 AM,30.2,30.2,100,30.20,3.0,Calm,Calm,-,N/A,,Clear,0,2012-11-09 06:55:00
2:15 AM,30.2,30.2,100,30.21,4.0,Calm,Calm,-,N/A,,Clear,0,2012-11-09 07:15:00
2:35 AM,30.2,30.2,100,30.21,5.0,Calm,Calm,-,N/A,,Clear,0,2012-11-09 07:35:00
2:55 AM,30.4,30.4,100,30.22,5.0,Calm,Calm,-,N/A,,Clear,0,2012-11-09 07:55:00
3:15 AM,30.2,30.2,100,30.21,4.0,Calm,Calm,-,N/A,,Clear,0,2012-11-09 08:15:00
3:35 AM,29.3,29.3,100,30.22,4.0,Calm,Calm,-,N/A,,Clear,0,2012-11-09 08:35:00
3:55 AM,29.8,29.8,100,30.22,3.0,Calm,Calm,-,N/A,,Clear,0,2012-11-09 08:55:00
4:15 AM,27.9,27.9,100,30.22,4.0,Calm,Calm,-,N/A,,Clear,0,2012-11-09 09:15:00
4:35 AM,28.9,28.9,100,30.22,4.0,Calm,Calm,-,N/A,,Clear,0,2012-11-09 09:35:00
4:55 AM,28.0,28.0,100,30.23,4.0,Calm,Calm,-,N/A,,Clear,0,2012-11-09 09:55:00
5:15 AM,28.2,28.2,100,30.23,4.0,Calm,Calm,-,N/A,,Clear,0,2012-11-09 10:15:00
5:35 AM,28.6,28.6,100,30.24,4.0,Calm,Calm,-,N/A,,Clear,0,2012-11-09 10:35:00
5:55 AM,27.9,27.9,100,30.25,4.0,Calm,Calm,-,N/A,,Clear,0,2012-11-09 10:55:00
6:15 AM,27.9,27.9,100,30.25,3.0,Calm,Calm,-,N/A,,Clear,0,2012-11-09 11:15:00
6:55 AM,27.9,27.9,100,30.26,2.0,Calm,Calm,-,N/A,,Clear,0,2012-11-09 11:55:00
7:15 AM,27.9,27.9,100,30.26,2.0,Calm,Calm,-,N/A,,Clear,0,2012-11-09 12:15:00
7:35 AM,27.9,27.9,100,30.27,3.0,Calm,Calm,-,N/A,,Clear,0,2012-11-09 12:35:00
7:55 AM,27.9,27.9,100,30.27,3.0,Calm,Calm,-,N/A,,Clear,0,2012-11-09 12:55:00
8:35 AM,32.5,32.5,100,30.27,2.5,Calm,Calm,-,N/A,,Clear,0,2012-11-09 13:35:00
8:55 AM,32.9,32.9,100,30.27,4.0,Calm,Calm,-,N/A,,Clear,0,2012-11-09 13:55:00
9:15 AM,35.4,35.4,100,30.26,5.0,Calm,Calm,-,N/A,,Clear,0,2012-11-09 14:15:00
9:35 AM,38.8,37.4,95,30.26,5.0,Calm,Calm,-,N/A,,Clear,0,2012-11-09 14:35:00
9:55 AM,41.0,38.3,90,30.26,7.0,SSW,4.6,-,N/A,,Clear,210,2012-11-09 14:55:00
10:15 AM,44.8,40.8,86,30.26,7.0,SW,3.5,-,N/A,,Clear,230,2012-11-09 15:15:00
10:35 AM,47.7,42.6,83,30.26,7.0,SW,4.6,-,N/A,,Clear,230,2012-11-09 15:35:00
10:55 AM,47.7,41.4,79,30.26,7.0,SW,5.8,-,N/A,,Clear,220,2012-11-09 15:55:00
11:15 AM,50.2,42.6,75,30.25,7.0,SSW,5.8,-,N/A,,Clear,200,2012-11-09 16:15:00
11:55 AM,52.7,43.3,70,30.23,10.0,SW,8.1,-,N/A,,Clear,220,2012-11-09 16:55:00
12:15 PM,53.2,43.3,69,30.22,10.0,WSW,6.9,-,N/A,,Clear,240,2012-11-09 17:15:00
12:35 PM,55.4,44.2,66,30.20,10.0,SSW,5.8,-,N/A,,Clear,210,2012-11-09 17:35:00
12:55 PM,55.6,43.2,63,30.19,10.0,SSW,6.9,-,N/A,,Clear,200,2012-11-09 17:55:00
1:15 PM,57.7,44.6,62,30.18,10.0,South,9.2,-,N/A,,Clear,190,2012-11-09 18:15:00
1:35 PM,57.7,43.5,59,30.18,10.0,SSW,10.4,-,N/A,,Clear,200,2012-11-09 18:35:00
1:55 PM,57.7,43.3,59,30.17,10.0,South,10.4,-,N/A,,Clear,180,2012-11-09 18:55:00
2:15 PM,57.7,42.8,57,30.17,10.0,SSW,10.4,-,N/A,,Clear,210,2012-11-09 19:15:00
2:35 PM,58.1,42.3,56,30.16,10.0,South,11.5,-,N/A,,Clear,190,2012-11-09 19:35:00
2:55 PM,58.6,42.1,54,30.16,10.0,SSW,9.2,-,N/A,,Clear,200,2012-11-09 19:55:00
3:15 PM,59.0,41.5,52,30.15,10.0,South,9.2,-,N/A,,Clear,190,2012-11-09 20:15:00
3:35 PM,59.0,41.2,52,30.14,10.0,SSW,9.2,-,N/A,,Clear,200,2012-11-09 20:35:00
3:55 PM,59.0,41.5,52,30.15,10.0,South,5.8,-,N/A,,Clear,190,2012-11-09 20:55:00
4:15 PM,59.0,41.4,52,30.15,10.0,South,12.7,-,N/A,,Clear,190,2012-11-09 21:15:00
4:35 PM,57.7,41.0,54,30.15,10.0,SSW,8.1,-,N/A,,Clear,200,2012-11-09 21:35:00
4:55 PM,57.7,41.4,54,30.15,10.0,South,8.1,-,N/A,,Scattered Clouds,190,2012-11-09 21:55:00
5:15 PM,57.0,41.7,57,30.14,10.0,South,6.9,-,N/A,,Clear,190,2012-11-09 22:15:00
5:35 PM,55.4,41.0,58,30.14,10.0,South,4.6,-,N/A,,Clear,180,2012-11-09 22:35:00
5:55 PM,55.4,41.0,58,30.15,10.0,South,5.8,-,N/A,,Scattered Clouds,190,2012-11-09 22:55:00
6:15 PM,55.4,41.9,60,30.15,10.0,South,4.6,-,N/A,,Scattered Clouds,180,2012-11-09 23:15:00
6:35 PM,55.4,41.2,59,30.15,10.0,South,4.6,-,N/A,,Scattered Clouds,180,2012-11-09 23:35:00
6:55 PM,55.4,42.6,62,30.14,10.0,South,6.9,-,N/A,,Scattered Clouds,170,2012-11-09 23:55:00
7:15 PM,55.4,42.3,61,30.14,10.0,South,9.2,-,N/A,,Scattered Clouds,170,2012-11-10 00:15:00
7:35 PM,55.4,42.3,61,30.14,10.0,South,6.9,-,N/A,,Clear,180,2012-11-10 00:35:00
7:55 PM,52.7,41.2,65,30.14,10.0,South,4.6,-,N/A,,Scattered Clouds,190,2012-11-10 00:55:00
8:15 PM,54.7,43.0,65,30.14,10.0,South,3.5,-,N/A,,Mostly Cloudy,180,2012-11-10 01:15:00
8:35 PM,52.7,41.7,66,30.14,10.0,South,3.5,-,N/A,,Mostly Cloudy,180,2012-11-10 01:35:00
8:55 PM,52.7,42.1,67,30.14,10.0,South,5.8,-,N/A,,Scattered Clouds,180,2012-11-10 01:55:00
9:15 PM,52.7,43.2,70,30.15,10.0,South,4.6,-,N/A,,Scattered Clouds,190,2012-11-10 02:15:00
9:35 PM,52.7,43.3,70,30.14,10.0,South,4.6,-,N/A,,Scattered Clouds,190,2012-11-10 02:35:00
9:55 PM,47.7,41.7,80,30.15,10.0,SSW,3.5,-,N/A,,Scattered Clouds,210,2012-11-10 02:55:00
10:15 PM,47.7,42.4,82,30.15,10.0,SSW,4.6,-,N/A,,Mostly Cloudy,210,2012-11-10 03:15:00
10:35 PM,47.7,42.1,81,30.14,10.0,SSW,4.6,-,N/A,,Scattered Clouds,210,2012-11-10 03:35:00
10:55 PM,47.7,42.8,83,30.15,10.0,SW,3.5,-,N/A,,Clear,220,2012-11-10 03:55:00
11:15 PM,47.7,43.0,84,30.14,10.0,SW,5.8,-,N/A,,Scattered Clouds,220,2012-11-10 04:15:00